Regional Weather Roundup
Issued by NWS

Home | Current Version | Previous Version | Graphics & Text | Print | Product List | Glossary On
Versions: 1 2 3 4 5 6 7 8 9 10 11 12 13 14 15 16 17 18 19 20 21 22 23 24 25 26 27 28 29 30 31 32 33 34 35 36 37 38 39 40 41 42 43 44 45 46 47 48 49 50
532
ASUS43 KBIS 271010
RWRND

NORTH DAKOTA REGIONAL WEATHER ROUNDUP
NATIONAL WEATHER SERVICE BISMARCK ND
400 AM CST MON FEB 27 2017

NOTE: "FAIR" INDICATES FEW OR NO CLOUDS BELOW 12,000 FEET WITH NO
SIGNIFICANT WEATHER AND/OR OBSTRUCTIONS TO VISIBILITY.


NDZ001>003-009>011-017-271100-
NORTHWEST NORTH DAKOTA

CITY           SKY/WX    TMP DP  RH WIND       PRES   REMARKS
WILLISTON      CLOUDY    13   8  81 N8        29.80F WCI   2
MINOT            N/A     15  10  80 W9        29.80S WCI   3
MINOT AFB      PTCLDY    12   9  85 NW9       29.80F WCI   0
$$

NDZ018>021-031>035-040>046-271100-
SOUTHWEST NORTH DAKOTA

CITY           SKY/WX    TMP DP  RH WIND       PRES   REMARKS
BISMARCK       FAIR       9   6  88 E3        29.84F
DICKINSON      CLOUDY    17  14  88 SE5       29.72F WCI  10
GARRISON         N/A      7   4  87 CALM      29.80F
HETTINGER ARPT CLOUDY    20  16  84 SE7       29.75F WCI  11
$$

NDZ004>008-012>016-024-026-027-054-271100-
NORTHEAST NORTH DAKOTA

CITY           SKY/WX    TMP DP  RH WIND       PRES   REMARKS
GRAND FORKS    CLOUDY    12   4  70 S9        29.90F WCI   0
GRND FRKS AFB  CLOUDY    11   5  78 SW7       29.89F WCI   0
DEVILS LAKE    FAIR      11   8  88 SW8       29.84F WCI  -1
$$

NDZ022-023-025-028>030-036>039-047>053-271100-
SOUTHEAST NORTH DAKOTA

CITY           SKY/WX    TMP DP  RH WIND       PRES   REMARKS
FARGO          CLOUDY    21  16  81 SE3       29.90F
JAMESTOWN      CLOUDY    20  17  88 CALM      29.85S
$$





USA.gov is the U.S. government's official web portal to all federal, state and local government web resources and services.